Theta_e
283 282 282 282 282 282 281 281 281 280 280 280 280 280 281 281 281 281 280 281 281 281 281 281 281 281 282 282 282 282 281 281 281 281 281 280 280 280 280 280 280 280
282 281 281 281 280 280 281 281 280 280 279 280 280 280 280 280 280 280 280 280 280 280 280 281 281 281 281 281 281 281 281 280 280 281 280 280 280 280 279 280 279 280
281 280 280 280 280 279 279 279 279 279 279 279 279 279 279 280 279 280 279 279 279 279 280 280 280 280 280 280 280 280 280 280 279 280 280 279 279 279 279 279 279 279
280 279 279 279 279 278 278 278 278 278 278 278 278 279 279 279 279 279 279 279 278 278 279 279 279 279 279 279 279 278 279 279 279 280 279 279 279 279 278 279 279 278
279 279 278 278 278 278 277 277 277 278 278 278 278 278 278 278 278 278 277 277 278 277 277 277 278 278 278 278 278 277 278 278 279 279 278 278 278 278 278 278 278 277
278 278 278 277 277 277 277 277 277 277 277 277 277 277 277 277 277 276 276 276 276 276 276 276 276 277 277 277 277 277 277 277 278 278 278 277 277 278 278 277 277 277
277 277 277 277 276 276 276 276 276 277 277 277 277 276 276 276 275 276 276 275 275 275 275 276 275 276 276 276 276 275 276 276 276 276 276 276 276 276 277 277 276 276
277 277 276 276 276 276 275 276 276 276 276 276 275 275 275 275 275 275 275 275 275 274 275 275 275 275 275 274 274 274 274 274 274 274 274 274 274 274 274 275 276 275
277 276 276 276 275 276 275 276 276 276 276 275 275 275 275 275 275 275 274 274 274 274 274 273 273 273 273 273 272 272 272 272 272 272 272 271 271 272 272 273 273 273
276 276 275 275 275 276 275 276 275 275 275 275 274 275 274 274 274 274 274 273 273 272 272 272 272 272 271 271 270 270 270 270 270 270 270 270 270 270 270 271 271 270
276 276 275 275 275 276 275 275 275 275 275 274 274 273 273 273 273 273 272 271 271 271 271 270 270 270 270 269 269 269 269 269 269 269 269 269 269 269 270 269 269 269
276 275 275 275 275 275 274 274 274 274 274 273 273 272 271 271 271 270 270 270 270 270 270 269 269 269 269 269 269 269 268 268 268 268 268 268 268 268 268 268 268 268
275 275 275 275 275 274 274 274 273 273 272 271 271 270 269 269 269 269 269 269 269 269 269 269 268 268 268 268 268 268 268 268 267 267 268 268 268 268 268 269 269 269
275 275 275 274 274 273 273 272 272 271 270 269 269 268 268 268 268 268 268 268 268 268 269 269 268 268 268 269 269 269 268 267 267 267 268 268 268 269 269 269 269 269
275 274 274 273 272 271 270 270 269 269 268 267 267 267 267 267 267 267 267 267 268 268 268 268 268 268 268 268 268 268 268 268 268 268 268 268 268 269 270 270 270 270
274 273 272 271 270 269 269 268 267 267 266 266 265 266 266 266 266 266 267 267 267 268 268 268 268 268 269 270 271 270 270 270 270 270 270 269 269 269 270 270 271 271
272 271 271 269 269 268 267 266 266 265 265 265 265 265 265 266 266 266 267 267 267 267 267 267 268 268 270 271 273 273 271 270 270 270 270 270 270 269 269 270 271 271
271 270 269 268 267 266 265 265 264 264 264 264 264 264 265 266 266 266 267 267 267 267 267 267 267 269 271 272 273 273 273 271 271 270 270 270 270 270 270 270 271 271
270 268 267 266 266 265 264 263 263 263 263 263 264 265 265 265 266 266 266 267 267 267 266 267 267 269 271 272 273 274 274 273 271 271 271 271 271 271 271 271 271 271
268 267 267 266 265 264 264 263 263 263 264 264 264 265 265 265 265 265 266 266 266 266 266 267 267 269 271 272 273 274 274 274 272 271 271 271 270 270 270 271 271 271
267 266 266 265 264 263 263 262 262 263 263 264 265 265 265 265 265 265 265 265 265 266 266 266 266 270 272 272 273 274 275 275 272 271 270 270 271 271 271 271 272 272
266 266 265 264 264 263 262 262 263 263 263 264 264 264 265 265 265 265 265 264 265 265 265 265 266 270 271 272 273 274 275 271 271 271 271 271 271 271 271 271 272 272
266 265 264 263 263 262 262 262 262 262 263 264 263 264 264 264 264 264 265 265 264 265 265 265 266 268 271 272 273 274 273 271 271 271 271 271 271 271 272 271 272 272
266 265 263 263 262 261 261 262 262 263 263 263 263 263 263 264 264 264 264 265 264 264 265 264 265 268 271 272 273 274 274 271 271 270 270 271 271 271 272 271 272 274
264 263 263 262 261 261 261 260 261 262 263 263 263 263 263 264 264 264 264 264 264 264 266 266 265 267 271 272 273 274 273 272 271 271 270 270 271 271 272 272 272 273
262 261 261 260 260 260 261 261 262 262 262 262 262 263 263 264 263 263 263 263 264 265 265 267 267 267 268 272 273 274 275 272 272 271 270 270 271 271 270 272 272 272
Wind_Speed
8 7 6 6 6 5 5 5 5 6 6 6 7 7 7 7 7 7 8 8 8 8 8 9 9 9 9 10 11 11 12 13 13 12 13 14 14 15 16 17 18 16
9 7 5 5 5 5 5 5 6 7 7 8 7 7 7 8 7 7 8 8 8 9 9 9 10 10 11 11 12 13 13 13 14 11 13 15 15 16 17 19 18 17
8 8 8 7 6 6 6 6 7 7 7 8 7 7 7 6 7 7 7 8 8 9 9 9 10 12 13 13 13 13 13 14 14 14 14 15 15 15 16 16 17 19
9 8 7 7 6 6 6 6 7 7 7 7 7 6 6 6 7 7 7 8 8 9 9 9 11 12 12 13 13 12 14 14 14 15 15 14 15 15 16 16 17 18
9 8 7 6 5 6 6 7 8 7 7 7 6 7 6 6 6 7 7 7 7 8 9 10 11 12 12 12 12 12 13 13 14 14 15 16 15 15 15 15 18 20
8 7 6 6 6 6 6 7 7 7 7 7 7 6 6 6 6 7 7 8 7 8 10 11 11 11 12 12 12 12 12 12 12 14 16 17 17 16 14 16 18 19
8 7 8 6 7 7 7 7 6 6 6 6 6 6 5 6 6 7 7 8 9 10 10 11 11 12 11 12 12 13 13 14 14 15 17 16 16 17 18 17 18 20
8 7 7 6 7 7 7 6 6 6 5 5 6 6 6 6 7 7 7 9 10 10 11 11 12 13 13 12 13 13 14 11 12 14 16 17 17 18 17 16 17 19
8 7 7 7 7 6 6 6 5 6 5 5 6 5 6 6 7 8 9 10 10 10 10 11 12 12 12 12 13 14 15 14 13 15 16 17 18 18 18 17 19 19
8 7 8 7 7 6 6 6 5 5 5 5 5 5 6 6 7 8 9 9 10 11 11 11 12 12 12 12 13 14 14 15 15 15 15 16 18 18 18 18 19 20
9 8 7 7 7 5 6 5 5 5 4 5 5 6 6 6 7 7 7 8 8 10 11 12 12 12 12 13 13 13 14 15 16 15 15 16 17 18 18 19 19 20
9 8 8 7 7 6 5 5 4 4 4 4 5 6 6 7 7 6 6 8 9 10 11 12 12 12 13 14 14 14 14 14 15 15 16 17 18 19 19 18 18 19
9 8 7 7 6 5 4 4 4 3 4 5 5 6 6 7 6 7 7 8 9 10 11 12 12 12 12 13 13 14 15 15 15 16 17 17 18 19 20 21 20 19
8 8 7 6 5 4 4 3 3 4 4 4 4 6 6 7 6 7 7 7 9 10 11 11 12 12 13 13 13 13 14 15 16 16 17 18 19 20 20 20 21 20
8 7 6 6 5 4 4 4 4 4 4 4 5 5 5 6 6 7 8 9 9 10 11 11 11 11 10 10 11 13 13 15 16 16 17 17 17 17 18 18 20 20
8 6 6 5 5 5 4 4 4 4 4 4 5 5 5 5 6 7 8 9 9 10 10 10 10 9 11 17 17 15 16 16 16 17 18 18 19 20 21 21 20 19
7 7 6 6 5 5 4 4 4 4 4 4 5 5 5 6 6 7 8 8 9 9 10 9 9 9 17 19 21 23 18 17 17 17 17 18 19 20 20 20 20 20
7 7 7 6 6 5 5 4 4 4 4 4 4 5 5 4 6 7 7 8 7 9 10 10 10 14 20 20 22 23 22 18 17 17 17 19 18 20 19 19 21 21
7 7 7 6 6 5 4 4 4 4 4 4 5 4 4 5 6 6 7 7 8 9 10 10 11 15 20 22 22 23 24 22 16 17 17 18 19 20 20 20 19 19
7 7 7 6 6 5 5 4 4 4 4 4 3 4 4 5 5 7 7 7 8 9 10 11 12 15 21 23 23 24 25 22 17 18 17 18 20 19 18 19 20 20
8 7 6 6 5 5 5 4 4 3 4 4 3 3 4 4 5 6 7 8 9 9 10 11 11 19 22 24 24 25 25 24 17 17 17 17 17 18 19 20 20 19
8 7 6 6 5 5 5 4 4 3 3 3 3 3 3 4 5 6 7 8 9 10 11 12 12 20 23 24 25 25 27 18 16 16 16 16 18 19 20 20 20 20
8 7 7 6 6 5 4 4 3 3 3 2 2 3 3 4 5 6 6 8 9 10 11 12 13 18 23 24 24 26 22 16 16 14 15 17 19 19 20 20 20 19
7 7 6 6 5 5 4 3 3 2 3 2 2 2 4 4 5 6 7 7 9 11 11 13 16 19 24 24 25 26 23 18 16 16 18 19 19 18 17 18 20 31
6 6 6 6 5 4 4 3 3 3 2 1 1 2 4 5 5 6 7 8 9 11 16 17 15 17 22 24 25 25 22 16 16 16 16 17 17 17 17 18 20 21
6 6 5 5 5 4 3 3 2 2 1 0 1 2 3 4 5 6 8 9 10 11 12 13 15 16 18 25 25 26 27 19 15 16 17 17 16 17 19 17 17 20
Wind_Direction
192 193 195 200 210 219 225 231 240 247 251 253 256 261 264 273 278 278 278 276 276 278 278 277 275 274 271 270 267 268 270 271 271 268 265 260 258 257 257 256 254 253
187 186 191 197 209 214 222 226 239 246 251 253 254 261 265 268 272 273 277 279 281 280 281 279 277 276 276 276 275 273 271 270 265 262 262 259 259 260 257 256 255 254
179 186 193 199 204 213 220 231 240 244 247 251 258 259 263 265 270 272 274 278 282 284 282 281 282 282 279 276 276 273 271 270 267 266 263 260 259 259 258 257 256 254
181 186 189 198 208 216 224 231 235 239 244 249 250 257 264 269 271 274 279 279 283 287 287 288 287 283 278 277 275 272 270 269 267 267 265 263 261 259 259 256 256 255
178 181 187 194 206 214 223 233 236 241 247 255 263 262 262 268 277 283 284 285 284 289 292 289 286 280 279 276 273 271 270 269 267 265 263 262 261 260 259 259 258 256
174 178 182 193 204 212 224 231 239 246 253 258 260 268 271 276 279 282 283 286 288 290 293 284 280 280 278 276 274 272 272 270 269 267 266 265 266 263 262 261 260 257
174 176 185 193 204 217 229 238 243 247 253 260 273 270 276 280 277 279 285 284 291 290 286 284 281 280 280 279 276 274 273 274 274 271 271 270 270 270 266 264 263 258
175 177 184 194 205 216 228 233 242 247 252 264 264 272 275 276 277 281 280 290 291 283 284 282 280 281 281 279 277 278 278 276 275 274 273 272 272 271 271 269 264 263
175 181 186 196 207 218 225 230 240 248 251 258 266 273 278 275 282 285 290 291 283 284 285 283 281 280 280 278 278 279 280 278 275 275 275 275 274 273 274 274 270 268
179 182 188 198 207 216 221 230 239 247 254 256 267 277 277 284 284 289 293 293 292 289 286 282 280 279 279 279 278 279 279 279 278 277 275 274 274 275 276 275 272 273
180 183 190 197 206 212 222 232 241 244 249 264 268 271 278 284 285 286 288 287 288 290 292 287 284 281 280 280 279 277 278 278 278 278 274 273 273 272 273 273 272 271
180 184 191 196 201 212 220 225 232 246 253 263 271 275 282 279 280 284 286 289 287 289 288 287 287 283 283 285 285 285 280 281 277 273 272 269 268 267 265 262 263 264
180 184 185 188 194 201 205 216 229 243 254 261 268 272 272 274 277 282 283 285 284 289 290 289 289 288 287 285 284 282 284 281 276 272 267 266 262 261 261 258 255 254
178 178 179 183 184 186 200 217 229 237 247 253 259 265 267 273 279 282 285 285 287 290 295 293 290 292 291 292 293 290 283 279 273 270 268 266 265 262 259 256 252 248
167 170 173 172 177 182 196 204 218 236 243 253 256 261 267 270 278 282 283 285 287 289 294 297 293 292 295 297 293 288 283 279 277 272 269 268 268 267 266 265 262 255
163 161 165 164 170 183 188 200 217 231 239 247 254 260 269 275 278 281 282 284 289 294 297 298 295 290 282 282 285 289 291 290 289 287 286 285 284 284 282 279 277 274
162 164 164 169 171 178 186 199 220 225 239 247 252 257 263 270 271 276 280 284 289 294 296 290 285 282 287 289 293 295 296 293 291 288 286 284 284 284 283 284 281 277
162 160 165 171 171 183 188 197 214 228 237 245 251 258 264 265 270 271 280 289 290 295 294 292 289 288 296 296 298 298 297 296 293 292 290 287 284 283 282 282 282 280
160 164 169 173 179 178 183 197 212 227 234 238 243 252 258 257 268 281 284 293 295 299 297 293 291 291 301 303 303 302 302 301 294 290 287 287 288 287 286 285 283 281
165 165 173 173 173 177 188 203 208 221 232 241 241 244 248 263 268 275 282 291 298 299 298 297 293 294 304 306 307 306 305 304 297 295 292 290 288 286 284 282 280 280
166 170 172 170 172 179 191 201 207 220 232 234 230 237 248 266 276 281 288 289 292 294 296 296 292 301 306 306 307 306 305 307 299 293 286 280 280 281 281 281 281 281
168 170 170 169 171 180 187 199 203 216 229 238 240 249 260 268 276 283 288 289 289 294 296 295 293 301 306 306 304 304 306 305 298 291 286 286 285 287 284 281 279 277
170 168 166 168 172 178 182 195 200 218 229 226 243 265 278 278 281 285 288 294 295 292 294 292 292 298 301 304 305 307 308 302 299 292 289 290 290 290 289 285 281 278
166 163 163 168 170 173 176 193 201 224 220 228 250 288 289 286 291 290 287 291 295 292 287 293 296 295 297 302 303 303 305 305 302 298 293 292 288 282 281 281 279 279
154 161 162 164 165 163 177 197 203 207 226 230 265 283 283 288 294 295 294 294 287 282 286 292 289 293 299 302 301 303 308 306 301 293 287 288 290 291 288 287 283 283
153 157 159 157 151 158 187 203 193 209 207 343 314 285 297 302 304 301 297 289 289 288 290 288 294 296 297 298 300 303 306 306 305 303 297 289 289 291 294 290 292 293